[[{"header":{"parameterUnit":"m.s-1","parameterCategory":1,"la1":30.2991,"la2":30.254,"lo1":-89.0895,"lo2":-89.0444,"dy":0.0017,"dx":0.0017,"nx":28,"ny":28,"refTime":"2023-07-24T03:00:00:Z","depth":0,"parameterNumber":2,"parameterNumberName":"U-component_of_WINDS"},"data":[0,0,0,0,0,0,0,0,0,0,0,0,0,0,0,0,0,0,0,0,0,0,0,0,0,0,0,0,0,0,0,0,0,0,0,0,0,0,0,0,0,0,0,0,0,0,0,0,0,0,0,0,0,0,0,0,0,0,1.1343,1.1342,0,1.132,1.132,1.132,1.1285,1.1285,1.1284,1.1284,1.1261,1.1261,1.1261,0,0,0,0,0,0,0,0,0,0,0,0,0,1.1355,1.1355,1.1343,1.1342,1.1342,1.132,1.132,1.132,1.1285,1.1285,1.1284,1.1283,1.1261,1.1261,1.1261,0,0,0,0,0,0,0,0,0,0,0,0,0,1.1343,1.1355,1.1343,1.1322,1.132,1.132,1.132,1.132,1.1286,1.1285,1.1284,1.1283,1.1261,1.1261,1.1261,1.128,0,0,1.1261,1.1261,0,0,0,0,0,0,0,0,1.1344,1.1343,1.1326,1.1324,1.1321,1.1305,1.1316,1.1306,1.1286,1.1299,1.1284,1.1282,1.1276,1.1275,1.1273,1.1279,1.1278,1.1261,1.1261,1.1261,1.1261,0,0,0,0,0,0,0,1.1345,1.1344,1.1334,1.1325,1.1323,1.1314,1.1312,1.1314,1.1293,1.1298,1.1295,1.1293,1.1275,1.1273,1.1272,1.1277,1.1261,1.1261,1.1261,1.1261,1.1295,1.1296,0,0,0,0,0,0,1.1349,1.1344,1.1334,1.1333,1.1331,1.1315,1.1312,1.1311,1.1293,1.1289,1.1294,1.1291,1.1274,1.1272,1.1271,1.129,1.1261,1.1261,1.1261,1.1295,1.1296,1.1297,0,0,0,0,0,0,1.1349,1.1348,1.1335,1.1338,1.1336,1.1316,1.1315,1.1311,1.1309,1.129,1.1286,1.1295,1.1273,1.1271,1.1277,1.1289,1.1261,1.1261,1.1293,1.1295,1.1296,1.133,0,0,0,0,0,0,1.135,1.1348,1.1355,1.1338,1.1336,1.1342,1.1316,1.1311,1.1309,1.1306,1.1291,1.1287,1.1272,1.1278,1.1277,1.1289,1.1261,1.1292,1.1294,1.1296,1.1328,1.1332,1.1336,0,0,0,0,0,1.135,1.1366,1.1356,1.1355,1.1344,1.1343,1.1341,1.1323,1.131,1.1316,1.1304,1.1288,1.1288,1.1279,1.1278,1.129,1.1291,1.1294,1.1296,1.1326,1.1331,1.1336,0,0,0,0,0,0,1.1385,1.1363,1.1352,1.1363,1.1355,1.1337,1.1345,1.133,1.1326,1.1323,1.1301,1.1298,1.1306,1.1299,1.1288,1.1306,1.1287,1.1289,1.131,1.1316,1.132,1.1321,1.1261,0,0,0,0,0,1.1394,1.1395,1.1376,1.1387,1.1384,1.1365,1.1364,1.1351,1.1342,1.1338,1.1326,1.1318,1.1316,1.1316,1.1313,1.1327,1.1322,1.1334,1.1339,1.1342,1.1344,1.1349,1.1354,1.1304,1.1304,1.1303,0,0,1.1413,1.1401,1.1403,1.1394,1.1386,1.1387,1.1363,1.1365,1.1365,1.1339,1.1343,1.1334,1.1324,1.1333,1.1337,1.1327,1.1357,1.1345,1.1348,1.1348,1.1352,1.1357,1.1361,1.1305,1.1305,1.1304,0,0,1.1446,1.1438,1.1446,1.1439,1.1427,1.1414,1.1417,1.1401,1.1394,1.1398,1.1377,1.1378,1.1376,1.1368,1.1365,1.1395,1.138,1.1395,1.1417,1.1423,1.1427,1.143,1.144,1.1444,1.1397,1.1397,1.1397,0,1.1471,1.1472,1.1452,1.1456,1.1452,1.1428,1.1435,1.1429,1.1418,1.1415,1.1405,1.1401,1.1392,1.1399,1.1406,1.1404,1.1405,1.1396,1.1428,1.1431,1.1434,1.1443,1.1447,1.1399,1.1399,1.1399,1.1399,0,1.1502,1.1503,1.151,1.1499,1.1497,1.1502,1.1483,1.1483,1.147,1.1459,1.1463,1.1452,1.1446,1.1447,1.1434,1.1451,1.1446,1.1432,1.1413,1.1441,1.1449,1.1452,1.1402,1.1401,1.1401,1.14,0,0,1.1557,1.1534,1.1537,1.1531,1.1517,1.1517,1.1521,1.1515,1.1515,1.1508,1.151,1.1509,1.1495,1.1491,1.1478,1.1483,1.1506,1.1468,1.1467,1.1474,1.1523,1.1533,1.1537,1.1496,1.1497,1.1497,1.1524,0,1.1587,1.1592,1.1575,1.1585,1.1585,1.1562,1.1565,1.1557,1.1546,1.1544,1.1532,1.1531,1.1514,1.1511,1.1515,1.1503,1.1516,1.1501,1.1498,1.1498,1.15,1.1542,1.1552,1.1578,1.1527,1.1527,1.1528,0,1.1622,1.1616,1.1627,1.161,1.161,1.1613,1.1606,1.1605,1.1594,1.1586,1.1581,1.1565,1.1568,1.155,1.1553,1.1543,1.1541,1.1535,1.1535,1.1533,1.1514,1.154,1.1585,1.1589,1.1533,1.1532,1.1532,0,1.166,1.1655,1.1659,1.1655,1.1637,1.164,1.1632,1.1621,1.1618,1.1612,1.1609,1.1604,1.16,1.1596,1.1579,1.1568,1.1584,1.1565,1.1576,1.1577,1.158,1.158,1.1624,1.1581,1.158,1.158,1.158,0,1.1695,1.1701,1.1676,1.1679,1.1686,1.1665,1.1673,1.1663,1.1653,1.1653,1.1633,1.1634,1.1612,1.161,1.1597,1.16,1.1599,1.1592,1.1588,1.1593,1.1594,1.1591,1.1588,1.1581,1.1581,1.1581,1.1581,0,1.1737,1.1721,1.1724,1.1706,1.1702,1.1708,1.1692,1.1694,1.1682,1.1683,1.1682,1.1663,1.1659,1.1642,1.1635,1.1626,1.1634,1.1628,1.1638,1.1635,1.1647,1.1645,1.169,1.1694,1.1649,1.165,1.165,0,1.176,1.1764,1.1747,1.1746,1.1739,1.1737,1.1734,1.1714,1.1712,1.17,1.1703,1.1698,1.1693,1.1689,1.1674,1.1668,1.1661,1.1677,1.166,1.1664,1.1659,1.1659,1.1658,1.168,1.1681,1.1681,1.1682,0,1.1802,1.1793,1.1789,1.1782,1.1779,1.1773,1.1765,1.1765,1.1743,1.1741,1.1738,1.1734,1.1726,1.1721,1.1713,1.1705,1.1689,1.1687,1.1689,1.1694,1.1699,1.1695,1.1646,1.1686,1.1686,1.1685,1.1685,1.1685,1.1834,1.1836,1.1824,1.182,1.1813,1.1806,1.1806,1.1794,1.179,1.1782,1.1771,1.1769,1.1757,1.1744,1.1738,1.1735,1.1726,1.173,1.173,1.1731,1.1733,1.17,1.1734,1.1734,1.1734,1.1733,1.1733,0,1.1873,1.1864,1.1861,1.1851,1.1847,1.1833,1.1824,1.1822,1.182,1.1811,1.1806,1.1801,1.1796,1.1781,1.1775,1.1775,1.1768,1.1774,1.1773,1.1771,1.1742,1.174,1.178,1.178,1.178,1.178,1.178,1.178,1.1893,1.1896,1.1886,1.1885,1.1876,1.1873,1.1869,1.1862,1.1854,1.185,1.1845,1.1836,1.1824,1.1816,1.1811,1.1806,1.1804,1.1812,1.1806,1.1778,1.1774,1.1769,1.1768,1.1812,1.1812,1.1835,1.1835,1.1835]},{"header":{"parameterUnit":"m.s-1","parameterCategory":1,"la1":30.2991,"la2":30.254,"lo1":-89.0895,"lo2":-89.0444,"dy":0.0017,"dx":0.0017,"nx":28,"ny":28,"refTime":"2023-07-24T03:00:00:Z","depth":0,"parameterNumber":3,"parameterNumberName":"V-component_of_WINDS"},"data":[0,0,0,0,0,0,0,0,0,0,0,0,0,0,0,0,0,0,0,0,0,0,0,0,0,0,0,0,0,0,0,0,0,0,0,0,0,0,0,0,0,0,0,0,0,0,0,0,0,0,0,0,0,0,0,0,0,0,-1.7375,-1.7375,0,-1.7418,-1.7418,-1.7419,-1.7409,-1.7408,-1.7407,-1.7406,-1.7449,-1.7451,-1.7453,0,0,0,0,0,0,0,0,0,0,0,0,0,-1.7284,-1.7285,-1.7375,-1.7375,-1.7376,-1.7418,-1.7418,-1.7419,-1.7409,-1.7408,-1.7407,-1.7406,-1.7449,-1.7451,-1.7453,0,0,0,0,0,0,0,0,0,0,0,0,0,-1.7324,-1.7286,-1.7375,-1.7376,-1.7376,-1.7417,-1.7418,-1.7419,-1.7409,-1.7408,-1.7407,-1.7405,-1.7448,-1.7451,-1.7454,-1.7496,0,0,-1.7462,-1.7464,0,0,0,0,0,0,0,0,-1.7322,-1.7328,-1.7375,-1.7376,-1.7377,-1.7407,-1.7402,-1.7445,-1.7409,-1.7397,-1.7406,-1.7405,-1.7436,-1.744,-1.7451,-1.7498,-1.75,-1.7463,-1.7464,-1.7466,-1.7466,0,0,0,0,0,0,0,-1.7319,-1.7326,-1.7392,-1.7376,-1.7377,-1.7374,-1.7379,-1.741,-1.7423,-1.7398,-1.7397,-1.7402,-1.7436,-1.7448,-1.7451,-1.75,-1.7463,-1.7465,-1.7467,-1.7468,-1.7584,-1.7586,0,0,0,0,0,0,-1.7316,-1.7324,-1.739,-1.7393,-1.7346,-1.7377,-1.7382,-1.7398,-1.7422,-1.7425,-1.7403,-1.7402,-1.7444,-1.7448,-1.7453,-1.7504,-1.7466,-1.7468,-1.747,-1.7583,-1.7585,-1.7586,0,0,0,0,0,0,-1.7314,-1.7322,-1.7389,-1.7358,-1.7366,-1.738,-1.7398,-1.74,-1.7411,-1.7427,-1.7429,-1.7413,-1.7443,-1.7449,-1.7485,-1.7505,-1.747,-1.7472,-1.7581,-1.7583,-1.7585,-1.7605,0,0,0,0,0,0,-1.7312,-1.7321,-1.7338,-1.7359,-1.7368,-1.742,-1.7399,-1.7401,-1.7416,-1.7415,-1.7436,-1.7438,-1.7442,-1.7481,-1.7488,-1.7508,-1.7474,-1.758,-1.7582,-1.7585,-1.7603,-1.7608,-1.7612,0,0,0,0,0,-1.7308,-1.7341,-1.7339,-1.7347,-1.7389,-1.7422,-1.7427,-1.7431,-1.7418,-1.7434,-1.7444,-1.7438,-1.7502,-1.7485,-1.7493,-1.7514,-1.7578,-1.7581,-1.7584,-1.7601,-1.7607,-1.7612,0,0,0,0,0,0,-1.7322,-1.7344,-1.7341,-1.7382,-1.74,-1.742,-1.744,-1.7437,-1.7459,-1.7456,-1.746,-1.7465,-1.7502,-1.7512,-1.7492,-1.7556,-1.7538,-1.7543,-1.7548,-1.7554,-1.7558,-1.7555,-1.7477,0,0,0,0,0,-1.733,-1.7355,-1.7373,-1.7407,-1.7417,-1.7427,-1.7441,-1.7443,-1.7462,-1.7469,-1.7482,-1.75,-1.7524,-1.754,-1.7563,-1.7605,-1.7609,-1.7623,-1.7628,-1.7632,-1.7635,-1.7658,-1.7665,-1.7596,-1.7596,-1.7596,0,0,-1.7346,-1.7362,-1.7377,-1.7411,-1.7425,-1.745,-1.7433,-1.7461,-1.748,-1.7473,-1.7508,-1.7518,-1.7538,-1.7578,-1.7596,-1.7587,-1.7655,-1.7636,-1.7638,-1.764,-1.7662,-1.7668,-1.7674,-1.7598,-1.7598,-1.7598,0,0,-1.7389,-1.7403,-1.7433,-1.7448,-1.747,-1.7477,-1.7484,-1.7504,-1.7511,-1.7546,-1.7541,-1.7564,-1.7606,-1.762,-1.7633,-1.7682,-1.7677,-1.769,-1.7713,-1.7735,-1.774,-1.7745,-1.7762,-1.7768,-1.7694,-1.7694,-1.7694,0,-1.7406,-1.7445,-1.7449,-1.7478,-1.7492,-1.7488,-1.7518,-1.7532,-1.756,-1.757,-1.756,-1.7613,-1.7626,-1.7669,-1.7681,-1.7692,-1.77,-1.7687,-1.7739,-1.7744,-1.7749,-1.7765,-1.7771,-1.7695,-1.7695,-1.7695,-1.7695,0,-1.7465,-1.7492,-1.7514,-1.7541,-1.7558,-1.7588,-1.7596,-1.7613,-1.7614,-1.7621,-1.7657,-1.7674,-1.77,-1.771,-1.7711,-1.7753,-1.7747,-1.7738,-1.772,-1.7756,-1.7771,-1.7778,-1.7697,-1.7696,-1.7696,-1.7696,0,0,-1.7516,-1.7547,-1.7554,-1.7567,-1.7591,-1.7611,-1.764,-1.7666,-1.7681,-1.77,-1.7724,-1.776,-1.7753,-1.7767,-1.7769,-1.7789,-1.7826,-1.7778,-1.7778,-1.7786,-1.7873,-1.7879,-1.7886,-1.7823,-1.7824,-1.7825,-1.7871,0,-1.7561,-1.7612,-1.7617,-1.7663,-1.7687,-1.7684,-1.7709,-1.7727,-1.7735,-1.7757,-1.7766,-1.7791,-1.7779,-1.7788,-1.7807,-1.7817,-1.7844,-1.7814,-1.7845,-1.7846,-1.7839,-1.7894,-1.79,-1.7942,-1.7877,-1.7878,-1.7879,0,-1.7619,-1.764,-1.7689,-1.7709,-1.772,-1.7742,-1.7767,-1.7788,-1.7808,-1.7812,-1.7829,-1.7829,-1.7859,-1.784,-1.7881,-1.7861,-1.7874,-1.7881,-1.7883,-1.7885,-1.7864,-1.7897,-1.7956,-1.7962,-1.7888,-1.7888,-1.7887,0,-1.7651,-1.7692,-1.7726,-1.7737,-1.7762,-1.7778,-1.7789,-1.7808,-1.7823,-1.7844,-1.7854,-1.7879,-1.7892,-1.7911,-1.7917,-1.7903,-1.7957,-1.794,-1.7962,-1.7961,-1.7972,-1.7971,-1.8033,-1.7982,-1.7982,-1.7982,-1.7982,0,-1.7699,-1.7728,-1.7741,-1.7762,-1.7795,-1.78,-1.7833,-1.7843,-1.786,-1.7882,-1.7881,-1.7903,-1.791,-1.7933,-1.7938,-1.797,-1.7977,-1.7981,-1.7982,-1.798,-1.798,-1.7988,-1.7985,-1.7984,-1.7983,-1.7983,-1.7983,0,-1.7739,-1.7749,-1.7786,-1.7807,-1.7813,-1.7836,-1.7854,-1.7874,-1.7882,-1.7911,-1.7918,-1.7931,-1.7958,-1.7966,-1.7998,-1.8002,-1.804,-1.8038,-1.8033,-1.8033,-1.8054,-1.8052,-1.8123,-1.8132,-1.8076,-1.8077,-1.8077,0,-1.7769,-1.7792,-1.7815,-1.783,-1.7842,-1.7867,-1.7883,-1.7889,-1.7906,-1.793,-1.7947,-1.7974,-1.7995,-1.8038,-1.805,-1.8074,-1.8073,-1.8096,-1.8076,-1.8074,-1.8072,-1.807,-1.8072,-1.81,-1.81,-1.8101,-1.8101,0,-1.782,-1.7824,-1.7847,-1.7872,-1.7891,-1.791,-1.793,-1.7942,-1.7952,-1.797,-1.7997,-1.8014,-1.8047,-1.8073,-1.8098,-1.8109,-1.8107,-1.8107,-1.8114,-1.8112,-1.8108,-1.8109,-1.8042,-1.8105,-1.8105,-1.8105,-1.8104,-1.8104,-1.7856,-1.7875,-1.7895,-1.7921,-1.7936,-1.7954,-1.7974,-1.7985,-1.8008,-1.8035,-1.8038,-1.8067,-1.8087,-1.812,-1.8133,-1.8156,-1.8149,-1.8158,-1.816,-1.8162,-1.8163,-1.8105,-1.816,-1.816,-1.816,-1.816,-1.816,0,-1.7906,-1.7919,-1.7942,-1.7969,-1.7989,-1.7986,-1.8007,-1.8024,-1.805,-1.8068,-1.809,-1.8121,-1.8146,-1.8161,-1.8186,-1.8202,-1.8201,-1.8208,-1.8206,-1.8209,-1.8168,-1.816,-1.8208,-1.8208,-1.8208,-1.8208,-1.8208,-1.8208,-1.7935,-1.7968,-1.7974,-1.8015,-1.8028,-1.8057,-1.8069,-1.8085,-1.81,-1.8135,-1.8156,-1.8166,-1.8183,-1.8209,-1.8232,-1.8236,-1.8245,-1.8252,-1.8255,-1.8217,-1.8212,-1.8207,-1.8199,-1.8255,-1.8255,-1.8294,-1.8294,-1.8294]}]]